Tracking 30970 objects as of 3-Jul-2025
HD Live streaming from Space Station
objects crossing your sky now

COSMOS 2251 DEB

Track COSMOS 2251 DEB now!
10-day predictions


NORAD ID: 34482
Int'l Code: 1993-036UB
Perigee: 647.7 km
Apogee: 722.5 km
Inclination: 74.0 °
Period: 98.3 minutes
Semi major axis: 7056 km
RCS: 0.033 m2 (small)
Launch date: June 16, 1993
Source: Commonwealth of Independent States (former USSR) (CIS)
Launch site: PLESETSK MISSILE AND SPACE COMPLEX (PKMTR)

Note: This is SATELLITE DEBRIS
Your satellite tracking list
Your tracking list is empty




NASA's NSSDC Master Catalog

Two Line Element Set (TLE):
1 34482U 93036UB  25183.42265514  .00005618  00000-0  10386-2 0  9990
2 34482  74.0382 178.4672 0053023 282.4727 228.2931 14.64722685857931
Source of the keplerian elements: AFSPC